Location: Ambatotampy
(18.8181°S, 47.6186°E)
Time: 00:02:56
(UTC+00:00)

Cosmos 1818 - Pass Details

Date: 21 January 2021
Orbit: 773 x 800 km, 65.0° (Epoch: 24 February)

Event Time Altitude Azimuth Distance (km) Brightness Sun altitude
Rises 01:48:08 0° 349° (N) 3,275 6.4 -9.7°
Reaches altitude 10° 01:50:36 10° 354° (N) 2,348 5.7 -9.1°
Maximum altitude 01:55:49 51° 69° (ENE) 991 4.4 -8.0°
Drops below altitude 10° 02:01:02 10° 143° (SE) 2,353 7.1 -6.9°
Sets 02:03:31 0° 148° (SSE) 3,282 7.8 -6.3°
